Salem, IL

2:15 AM CDT on May 01, 2017 (GMT -0500)
Salem-Leckrone

Weather History for KSLO - April, 2014

Change the Weather History Date:

Saturday, April 19, 2014

  Actual Average Record
Temperature  
Mean Temperature 61 °F -  
Max Temperature 74 °F 68 °F 84 °F (2017)
Min Temperature 48 °F 47 °F 22 °F (1983)
Degree Days  
Heating Degree Days 4    
Growing Degree Days 11 (Base 50)    
Moisture  
Dew Point 43 °F    
Average Humidity 53    
Maximum Humidity 76    
Minimum Humidity 34    
Precipitation  
Precipitation 0.00 in - - ()
Sea Level Pressure  
Sea Level Pressure 30.25 in    
Wind  
Wind Speed 5 mph (East)    
Max Wind Speed 9 mph    
Max Gust Speed -    
Visibility 10 miles    
Events      
Averages and records for this station are not official NWS values.
T = Trace of Precipitation, MM = Missing Value Source: NWS Daily Summary

Daily Weather History Graph

Daily Weather History Graph

Search for Another Location

Airport or City:

Trip Planner

Search our weather history database for the weather conditions in past years. The results will help you decide how hot, cold, wet, or windy it might be!

Date:

Astronomy

Apr. 19, 2014 Rise Set
Actual Time 6:14 AM CDT 7:36 PM CDT
Civil Twilight 5:46 AM CDT 8:04 PM CDT
Nautical Twilight 5:13 AM CDT 8:37 PM CDT
Astronomical Twilight 4:38 AM CDT 9:12 PM CDT
Moon No Moon Rise 9:33 AM CDT (4/19)
Length of Visible Light 14h 17m
Length of Day
13h 22m
Waning Gibbous, 78% of the Moon is Illuminated
Apr 19
Waning Gibbous
Apr 22
Last Quarter
Apr 29
New
May 6
First Quarter
May 14
Full

Hourly Weather History & Observations

Time (CDT) Temp. Dew Point Humidity Pressure Visibility Wind Dir Wind Speed Gust Speed Precip Events Conditions
12:15 AM 56.7 °F 43.0 °F 60% 30.25 in 10.0 mi NE 4.6 mph - N/A   Clear
12:35 AM 57.2 °F 42.8 °F 59% 30.25 in 10.0 mi NE 4.6 mph - N/A   Clear
12:55 AM 56.8 °F 42.3 °F 58% 30.25 in 10.0 mi NNE 4.6 mph - N/A   Clear
1:15 AM 56.3 °F 41.9 °F 59% 30.26 in 10.0 mi NE 5.8 mph - N/A   Clear
1:35 AM 56.3 °F 42.1 °F 59% 30.25 in 10.0 mi NE 6.9 mph - N/A   Clear
1:55 AM 55.2 °F 41.9 °F 61% 30.25 in 10.0 mi ENE 6.9 mph - N/A   Clear
2:15 AM 54.3 °F 42.3 °F 64% 30.25 in 10.0 mi ENE 5.8 mph - N/A   Clear
2:35 AM 53.6 °F 42.4 °F 66% 30.26 in 10.0 mi NE 4.6 mph - N/A   Clear
2:55 AM 52.9 °F 42.3 °F 67% 30.25 in 10.0 mi ENE 4.6 mph - N/A   Clear
3:15 AM 52.5 °F 42.3 °F 68% 30.25 in 10.0 mi NE 4.6 mph - N/A   Clear
3:35 AM 51.8 °F 42.3 °F 70% 30.25 in 10.0 mi ENE 4.6 mph - N/A   Clear
3:55 AM 51.6 °F 42.1 °F 70% 30.26 in 10.0 mi ENE 5.8 mph - N/A   Clear
4:15 AM 51.1 °F 41.9 °F 71% 30.26 in 10.0 mi NE 4.6 mph - N/A   Clear
4:35 AM 50.4 °F 41.9 °F 73% 30.26 in 10.0 mi NE 4.6 mph - N/A   Clear
4:55 AM 50.2 °F 41.5 °F 72% 30.26 in 10.0 mi NE 5.8 mph - N/A   Clear
5:15 AM 49.8 °F 41.2 °F 72% 30.27 in 10.0 mi ENE 6.9 mph - N/A   Clear
5:35 AM 49.1 °F 41.0 °F 74% 30.27 in 10.0 mi ENE 5.8 mph - N/A   Clear
5:55 AM 48.9 °F 40.6 °F 73% 30.27 in 10.0 mi ENE 6.9 mph - N/A   Clear
6:15 AM 48.2 °F 40.3 °F 74% 30.28 in 10.0 mi ENE 4.6 mph - N/A   Clear
6:35 AM 48.2 °F 40.1 °F 74% 30.28 in 10.0 mi ENE 6.9 mph - N/A   Clear
6:55 AM 48.2 °F 40.1 °F 74% 30.29 in 10.0 mi ENE 6.9 mph - N/A   Clear
7:15 AM 48.9 °F 40.5 °F 73% 30.29 in 10.0 mi ENE 6.9 mph - N/A   Clear
7:35 AM 49.5 °F 40.8 °F 72% 30.29 in 10.0 mi East 6.9 mph - N/A   Clear
7:55 AM 50.9 °F 41.4 °F 70% 30.29 in 10.0 mi East 6.9 mph - N/A   Clear
8:15 AM 52.7 °F 41.7 °F 66% 30.29 in 10.0 mi East 9.2 mph - N/A   Clear
8:35 AM 54.1 °F 42.3 °F 64% 30.29 in 10.0 mi East 8.1 mph - N/A   Clear
8:55 AM 55.9 °F 42.6 °F 61% 30.29 in 10.0 mi East 5.8 mph - N/A   Clear
9:15 AM 57.4 °F 43.0 °F 59% 30.30 in 10.0 mi East 5.8 mph - N/A   Clear
9:35 AM 59.0 °F 43.5 °F 56% 30.30 in 10.0 mi East 6.9 mph - N/A   Clear
9:55 AM 61.0 °F 44.8 °F 55% 30.30 in 10.0 mi ESE 6.9 mph - N/A   Clear
10:15 AM 62.2 °F 43.9 °F 51% 30.30 in 10.0 mi East 8.1 mph - N/A   Clear
10:35 AM 63.7 °F 44.4 °F 50% 30.30 in 10.0 mi East 6.9 mph - N/A   Clear
10:55 AM 65.7 °F 46.0 °F 49% 30.29 in 10.0 mi East 6.9 mph - N/A   Clear
11:15 AM 66.6 °F 45.9 °F 47% 30.28 in 10.0 mi ESE 8.1 mph - N/A   Clear
11:35 AM 67.5 °F 45.9 °F 46% 30.29 in 10.0 mi East 5.8 mph - N/A   Clear
11:55 AM 69.1 °F 45.9 °F 43% 30.28 in 10.0 mi East 6.9 mph - N/A   Clear
12:15 PM 69.8 °F 45.1 °F 41% 30.28 in 10.0 mi SE 6.9 mph - N/A   Clear
12:35 PM 71.1 °F 46.2 °F 41% 30.28 in 10.0 mi ESE 5.8 mph - N/A   Clear
12:55 PM 70.5 °F 45.0 °F 40% 30.27 in 10.0 mi ESE 5.8 mph - N/A   Clear
1:15 PM 71.1 °F 45.1 °F 39% 30.26 in 10.0 mi Calm Calm - N/A   Clear
1:35 PM 71.4 °F 44.6 °F 38% 30.26 in 10.0 mi ESE 3.5 mph - N/A   Clear
1:55 PM 72.1 °F 45.0 °F 38% 30.25 in 7.0 mi SE 6.9 mph - N/A   Clear
2:15 PM 72.3 °F 45.1 °F 38% 30.24 in 10.0 mi East 5.8 mph - N/A   Clear
2:35 PM 72.3 °F 44.6 °F 37% 30.24 in 10.0 mi ESE 5.8 mph - N/A   Clear
2:55 PM 73.0 °F 45.0 °F 37% - 10.0 mi ESE 5.8 mph - N/A   Clear
3:15 PM 73.0 °F 45.1 °F 37% 30.22 in 10.0 mi East 3.5 mph - N/A   Clear
3:35 PM 73.6 °F 43.3 °F 34% 30.22 in 10.0 mi Calm Calm - N/A   Clear
3:55 PM 73.2 °F 43.9 °F 35% 30.21 in 10.0 mi SSE 3.5 mph - N/A   Clear
4:15 PM 73.6 °F 43.9 °F 34% 30.21 in 10.0 mi SE 5.8 mph - N/A   Clear
4:35 PM 73.6 °F 44.4 °F 35% 30.21 in 10.0 mi SE 4.6 mph - N/A   Clear
4:55 PM 73.6 °F 44.6 °F 35% 30.20 in 10.0 mi SE 3.5 mph - N/A   Clear
5:15 PM 74.1 °F 44.2 °F 34% 30.20 in 10.0 mi ENE 4.6 mph - N/A   Clear
5:35 PM 73.6 °F 43.5 °F 34% 30.20 in 10.0 mi East 3.5 mph - N/A   Clear
5:55 PM 73.4 °F 44.2 °F 35% 30.20 in 10.0 mi East 5.8 mph - N/A   Clear
6:15 PM 72.5 °F 44.8 °F 37% 30.20 in 10.0 mi Calm Calm - N/A   Clear
6:35 PM 72.5 °F 42.6 °F 34% 30.20 in 10.0 mi ESE 3.5 mph - N/A   Clear
6:55 PM 71.6 °F 42.8 °F 35% 30.20 in 10.0 mi ENE 3.5 mph - N/A   Clear
7:15 PM 70.2 °F 42.6 °F 37% 30.20 in 10.0 mi Calm Calm - N/A   Clear
7:35 PM 69.1 °F 43.0 °F 39% 30.20 in 10.0 mi Calm Calm - N/A   Clear
7:55 PM 67.8 °F 42.6 °F 40% 30.20 in 10.0 mi Calm Calm - N/A   Clear
8:15 PM 67.8 °F 41.2 °F 38% 30.20 in 10.0 mi Calm Calm - N/A   Clear
8:35 PM 67.1 °F 40.3 °F 38% 30.20 in 10.0 mi East 3.5 mph - N/A   Clear
8:55 PM 65.7 °F 39.7 °F 39% 30.21 in 10.0 mi Calm Calm - N/A   Clear
9:15 PM 61.3 °F 42.3 °F 50% 30.21 in 10.0 mi Calm Calm - N/A   Clear
9:35 PM 60.4 °F 45.3 °F 57% 30.21 in 10.0 mi Calm Calm - N/A   Clear
9:55 PM 57.7 °F 46.9 °F 67% 30.21 in 10.0 mi Calm Calm - N/A   Clear
10:15 PM 57.2 °F 43.5 °F 60% 30.21 in 10.0 mi Calm Calm - N/A   Clear
10:35 PM 57.7 °F 44.4 °F 61% 30.21 in 10.0 mi Calm Calm - N/A   Clear
10:55 PM 55.6 °F 46.6 °F 72% 30.21 in 10.0 mi Calm Calm - N/A   Clear
11:15 PM 54.7 °F 47.1 °F 76% 30.21 in 10.0 mi Calm Calm - N/A   Clear
11:35 PM 55.0 °F 43.0 °F 64% 30.21 in 10.0 mi Calm Calm - N/A   Clear
11:55 PM 56.1 °F 44.2 °F 64% 30.21 in 10.0 mi East 3.5 mph - N/A   Clear